| time (UTC) | temp F | wind direction | speed knots | gust knots | rain 1hr in | rain 24hr in | rain mn in | humidity % | barometer mb |
| 20260507023000 | 57 | 85 | 0.9 | 1.7 | 0.00 | 0.00 | 0.00 | 79 | 1006.2 |
| 20260507021602 | 56 | 96 | 0.0 | 0.9 | 0.00 | 0.00 | 0.00 | 81 | 1006.2 |
| 20260507020100 | 56 | 96 | 0.0 | 0.9 | 0.00 | 0.00 | 0.00 | 80 | 1006.1 |
| 20260507014604 | 57 | 96 | 0.0 | 0.9 | 0.00 | 0.00 | 0.00 | 79 | 1006.1 |
| 20260507013053 | 58 | 96 | 0.0 | 0.9 | 0.00 | 0.00 | 0.00 | 78 | 1006.1 |
| 20260507011551 | 59 | 96 | 0.0 | 0.9 | 0.00 | 0.00 | 0.00 | 76 | 1006.0 |
| 20260507010048 | 59 | 96 | 0.0 | 0.9 | 0.00 | 0.00 | 0.00 | 73 | 1005.9 |
| 20260507004547 | 59 | 96 | 0.0 | 1.7 | 0.00 | 0.00 | 0.00 | 73 | 1005.9 |
| 20260507003147 | 59 | 98 | 0.0 | 0.9 | 0.00 | 0.00 | 0.00 | 74 | 1005.9 |
| 20260507001546 | 60 | 98 | 0.0 | 1.7 | 0.00 | 0.00 | 0.00 | 74 | 1005.8 |
| 20260507000044 | 60 | 139 | 0.0 | 1.7 | 0.00 | 0.00 | 0.00 | 75 | 1005.9 |
| 20260506234541 | 60 | 76 | 0.0 | 0.9 | 0.00 | 0.00 | 0.00 | 77 | 1006.0 |
| 20260506233046 | 61 | 76 | 0.0 | 0.9 | 0.00 | 0.00 | 0.00 | 76 | 1006.0 |
| 20260506231542 | 61 | 76 | 0.0 | 1.7 | 0.00 | 0.00 | 0.00 | 76 | 1006.0 |
| 20260506230039 | 60 | 94 | 0.9 | 1.7 | 0.00 | 0.00 | 0.00 | 77 | 1006.1 |
| 20260506224536 | 61 | 123 | 0.0 | 0.9 | 0.00 | 0.00 | 0.00 | 77 | 1006.0 |
| 20260506223035 | 62 | 123 | 0.0 | 0.9 | 0.00 | 0.00 | 0.00 | 76 | 1006.0 |
| 20260506221532 | 62 | 123 | 0.0 | 0.9 | 0.00 | 0.00 | 0.00 | 74 | 1006.0 |
| 20260506220029 | 63 | 123 | 0.0 | 0.9 | 0.00 | 0.00 | 0.00 | 72 | 1006.0 |
| 20260506214528 | 64 | 138 | 0.0 | 0.9 | 0.00 | 0.00 | 0.00 | 70 | 1005.9 |
| 20260506213027 | 64 | 138 | 0.0 | 0.9 | 0.00 | 0.00 | 0.00 | 68 | 1005.9 |
| 20260506211526 | 65 | 138 | 0.0 | 0.9 | 0.00 | 0.00 | 0.00 | 67 | 1006.0 |
| 20260506210028 | 66 | 138 | 0.0 | 1.7 | 0.00 | 0.00 | 0.00 | 66 | 1005.9 |
| 20260506204526 | 66 | 140 | 0.9 | 2.6 | 0.00 | 0.00 | 0.00 | 63 | 1005.8 |
| 20260506203024 | 67 | 117 | 0.9 | 2.6 | 0.00 | 0.00 | 0.00 | 61 | 1005.7 |
| 20260506201524 | 68 | 133 | 1.7 | 2.6 | 0.00 | 0.00 | 0.00 | 59 | 1005.6 |
| 20260506200024 | 69 | 141 | 0.9 | 1.7 | 0.00 | 0.00 | 0.00 | 57 | 1005.7 |
| 20260506194523 | 69 | 141 | 0.9 | 2.6 | 0.00 | 0.00 | 0.00 | 55 | 1005.7 |
| 20260506193022 | 70 | 145 | 0.9 | 2.6 | 0.00 | 0.00 | 0.00 | 54 | 1005.7 |
| 20260506191522 | 70 | 94 | 0.0 | 2.6 | 0.00 | 0.00 | 0.00 | 54 | 1005.4 |
| 20260506190021 | 70 | 90 | 0.9 | 2.6 | 0.00 | 0.00 | 0.00 | 53 | 1005.4 |
| 20260506184521 | 71 | 88 | 0.9 | 2.6 | 0.00 | 0.00 | 0.00 | 53 | 1005.3 |
| 20260506183020 | 71 | 92 | 0.9 | 3.5 | 0.00 | 0.00 | 0.00 | 52 | 1005.0 |
| 20260506180018 | 72 | 74 | 0.0 | 2.6 | 0.00 | 0.00 | 0.00 | 51 | 1004.8 |
| 20260506174518 | 73 | 107 | 0.0 | 2.6 | 0.00 | 0.00 | 0.00 | 50 | 1004.8 |
| 20260506173017 | 74 | 80 | 0.0 | 1.7 | 0.00 | 0.00 | 0.00 | 48 | 1004.8 |
| 20260506171520 | 74 | 130 | 0.9 | 3.5 | 0.00 | 0.00 | 0.00 | 48 | 1004.8 |
| 20260506170020 | 75 | 126 | 0.9 | 1.7 | 0.00 | 0.00 | 0.00 | 47 | 1004.8 |
| 20260506164516 | 75 | 87 | 0.0 | 2.6 | 0.00 | 0.00 | 0.00 | 46 | 1004.8 |
| 20260506163030 | 76 | 111 | 0.9 | 3.5 | 0.00 | 0.00 | 0.00 | 44 | 1004.8 |
| 20260506161513 | 76 | 122 | 1.7 | 11.3 | 0.00 | 0.00 | 0.00 | 43 | 1004.8 |
| 20260506160018 | 76 | 132 | 3.5 | 10.4 | 0.00 | 0.00 | 0.00 | 44 | 1005.0 |
| 20260506154509 | 76 | 149 | 2.6 | 14.8 | 0.00 | 0.00 | 0.00 | 45 | 1005.1 |
| 20260506153007 | 76 | 126 | 2.6 | 7.8 | 0.00 | 0.00 | 0.00 | 44 | 1005.2 |
| 20260506151506 | 78 | 93 | 2.6 | 11.3 | 0.00 | 0.00 | 0.00 | 41 | 1005.1 |
| 20260506150006 | 80 | 146 | 4.3 | 12.2 | 0.00 | 0.00 | 0.00 | 40 | 1005.1 |
| 20260506144506 | 80 | 135 | 6.1 | 12.2 | 0.00 | 0.00 | 0.00 | 40 | 1005.1 |
| 20260506143004 | 78 | 114 | 4.3 | 15.6 | 0.00 | 0.00 | 0.00 | 41 | 1005.1 |
| 20260506141504 | 78 | 141 | 3.5 | 14.8 | 0.00 | 0.00 | 0.00 | 42 | 1005.2 |
| 20260506140003 | 79 | 128 | 7.0 | 14.8 | 0.00 | 0.00 | 0.00 | 41 | 1005.1 |
| 20260506134502 | 80 | 132 | 2.6 | 13.0 | 0.00 | 0.00 | 0.00 | 40 | 1005.0 |
| 20260506133100 | 79 | 146 | 5.2 | 16.5 | 0.00 | 0.00 | 0.00 | 40 | 1005.0 |
| 20260506131601 | 79 | 130 | 7.0 | 18.2 | 0.00 | 0.00 | 0.00 | 41 | 1005.1 |
| 20260506130100 | 79 | 130 | 2.6 | 12.2 | 0.00 | 0.00 | 0.00 | 40 | 1005.1 |
| 20260506124556 | 79 | 141 | 5.2 | 12.2 | 0.00 | 0.00 | 0.00 | 40 | 1005.1 |
| 20260506123157 | 79 | 123 | 6.1 | 13.9 | 0.00 | 0.00 | 0.00 | 40 | 1005.1 |
| 20260506121555 | 79 | 156 | 8.7 | 16.5 | 0.00 | 0.00 | 0.00 | 39 | 1005.1 |
| 20260506120059 | 79 | 134 | 2.6 | 17.4 | 0.00 | 0.00 | 0.00 | 38 | 1005.1 |
| 20260506114604 | 79 | 142 | 7.8 | 14.8 | 0.00 | 0.00 | 0.00 | 37 | 1005.1 |
| 20260506113053 | 79 | 156 | 7.0 | 14.8 | 0.00 | 0.00 | 0.00 | 39 | 1005.1 |
| 20260506111550 | 78 | 142 | 3.5 | 13.0 | 0.00 | 0.00 | 0.00 | 41 | 1005.0 |
| 20260506110147 | 78 | 107 | 2.6 | 12.2 | 0.00 | 0.00 | 0.00 | 40 | 1005.2 |
| 20260506104547 | 78 | 119 | 7.0 | 14.8 | 0.00 | 0.00 | 0.00 | 40 | 1005.3 |
| 20260506103047 | 77 | 139 | 7.8 | 13.9 | 0.00 | 0.00 | 0.00 | 41 | 1005.4 |
| 20260506101545 | 77 | 117 | 1.7 | 16.5 | 0.00 | 0.00 | 0.00 | 41 | 1005.2 |
| 20260506100045 | 76 | 140 | 7.8 | 15.6 | 0.00 | 0.00 | 0.00 | 40 | 1005.4 |
| 20260506094607 | 75 | 123 | 5.2 | 14.8 | 0.00 | 0.00 | 0.00 | 41 | 1005.4 |
| 20260506093037 | 75 | 153 | 5.2 | 20.0 | 0.00 | 0.00 | 0.00 | 41 | 1005.5 |
| 20260506091534 | 74 | 132 | 6.1 | 14.8 | 0.00 | 0.00 | 0.00 | 43 | 1005.4 |
| 20260506090031 | 74 | 135 | 8.7 | 13.9 | 0.00 | 0.00 | 0.00 | 42 | 1005.3 |
| 20260506084529 | 73 | 139 | 9.6 | 13.9 | 0.00 | 0.00 | 0.00 | 43 | 1005.4 |
| 20260506083028 | 72 | 140 | 8.7 | 13.0 | 0.00 | 0.00 | 0.00 | 44 | 1005.3 |
| 20260506081526 | 72 | 157 | 7.8 | 17.4 | 0.00 | 0.00 | 0.00 | 43 | 1005.4 |
| 20260506073025 | 71 | 139 | 6.1 | 13.0 | 0.00 | 0.00 | 0.00 | 45 | 1005.2 |
| 20260506071529 | 71 | 150 | 7.8 | 18.2 | 0.00 | 0.00 | 0.00 | 45 | 1005.3 |
| 20260506061517 | 70 | 94 | 0.9 | 7.0 | 0.00 | 0.00 | 0.00 | 48 | 1005.1 |
| 20260506043048 | 57 | 144 | 0.0 | 0.9 | 0.00 | 0.00 | 0.00 | 63 | 1005.7 |
| 20260506041647 | 55 | 144 | 0.0 | 0.9 | 0.00 | 0.00 | 0.00 | 67 | 1005.8 |
| 20260506040058 | 54 | 139 | 0.0 | 1.7 | 0.00 | 0.00 | 0.00 | 68 | 1005.6 |
| 20260506034549 | 53 | 204 | 0.0 | 1.7 | 0.00 | 0.00 | 0.00 | 70 | 1005.7 |
| 20260506033044 | 53 | 142 | 0.0 | 0.9 | 0.00 | 0.00 | 0.00 | 70 | 1005.7 |
| 20260506031555 | 53 | 142 | 0.0 | 0.9 | 0.00 | 0.00 | 0.00 | 70 | 1005.8 |
| 20260506030043 | 53 | 142 | 0.0 | 0.9 | 0.00 | 0.00 | 0.00 | 70 | 1005.8 |
| 20260506024542 | 53 | 139 | 0.0 | 1.7 | 0.00 | 0.00 | 0.00 | 71 | 1005.9 |